Regional Weather Roundup
Issued by NWS Sioux Falls, SD

Home | Current Version | Previous Version | Text Only | Print | Product List | Glossary Off
Versions: 1 2 3 4 5 6 7 8 9 10 11 12 13 14 15 16 17 18 19 20 21 22 23 24 25 26 27 28 29 30 31 32 33 34 35 36 37 38 39 40 41 42 43 44 45 46 47 48 49 50

000
ASUS43 KFSD 251602
RWRFSD

WEATHER ROUNDUP FOR SE SOUTH DAKOTA/SW MINNESOTA/NW IOWA
NATIONAL WEATHER SERVICE SIOUX FALLS SD
1100 AM CDT FRI JUL 25 2014

NOTE: "FAIR" INDICATES FEW OR NO CLOUDS BELOW 12,000 FEET WITH NO
SIGNIFICANT WEATHER AND OR OBSTRUCTIONS TO VISIBILITY.


SDZ038>040-050-052>070-251700-
SOUTHEAST SOUTH DAKOTA

CITY           SKY/WX    TMP DP  RH WIND       PRES   REMARKS
CHAMBERLAIN    SUNNY     79  66  64 N12       29.79S
HURON          SUNNY     78  67  68 MISG      29.76S
MADISON        FAIR      73  70  88 S12       29.79S
MITCHELL       SUNNY     78  68  71 S7        29.77R
SIOUX FALLS    MOSUNNY   75  67  76 S9        29.78R
WINNER         FAIR      82  66  58 NW16G23   29.83S
YANKTON        SUNNY     75  66  73 SE10      29.76R
$$

MNZ071-072-080-081-089-090-097-098-251700-
SOUTHWEST MINNESOTA

CITY           SKY/WX    TMP DP  RH WIND       PRES   REMARKS
FAIRMONT       MOSUNNY   73  54  49 S18       29.83R
JACKSON        MOSUNNY   72  61  68 S14       29.83R
LUVERNE        MOSUNNY   73  63  68 S15       29.80R
MARSHALL       SUNNY     77  64  65 S15       29.78S
MONTEVIDEO     MOSUNNY   77  68  73 SW10G17   29.78F
PIPESTONE      SUNNY     72  64  78 S14       29.80R
REDWOOD FALLS  PTSUNNY   75  64  68 S13G23    29.79F
TRACY          SUNNY     75  64  69 S14G21    29.79F
WINDOM         MOSUNNY   73  63  68 S13G22    29.81S
WORTHINGTON    MOSUNNY   70  61  73 S13G25    29.83R
$$

IAZ001>003-012>014-020>022-031-032-NEZ013-014-SDZ071-251700-
NORTHWEST IOWA

CITY           SKY/WX    TMP DP  RH WIND       PRES   REMARKS
CHEROKEE       SUNNY     72  64  75 S23G30    29.78F
DENISON        CLOUDY    70  61  73 SE17G26   29.80F
ESTHERVILLE    MOSUNNY   72  63  73 S18G30    29.81R
LE MARS        SUNNY     73  64  73 SE15G22   29.77S
SIOUX CITY     SUNNY     77  65  66 SE13G21   29.76F
SPENCER        SUNNY     72  61  68 S23G31    29.80R
STORM LAKE     SUNNY     70  63  78 S24G33    29.81S
$$

ABBREVIATIONS USED IN REMARKS
   TC - TEMPERATURE IN CELSIUS
  WCI - WIND CHILL INDEX
   HX - HEAT INDEX
  VSB - VISIBILITY



USA.gov is the U.S. government's official web portal to all federal, state and local government web resources and services.